Weather History for PAHN - May, 2013

Change the Weather History Date:

Friday, May 3, 2013

  Actual Average Record
Temperature  
Mean Temperature 44 °F -  
Max Temperature 46 °F 51 °F 66 °F (2004)
Min Temperature 42 °F 36 °F 30 °F (2002)
Degree Days  
Heating Degree Days 21    
Moisture  
Dew Point 41 °F    
Average Humidity 88    
Maximum Humidity 93    
Minimum Humidity 81    
Precipitation  
Precipitation 0.10 in - - ()
Sea Level Pressure  
Sea Level Pressure 30.35 in    
Wind  
Wind Speed 13 mph (East)    
Max Wind Speed 18 mph    
Max Gust Speed 31 mph    
Visibility 10 miles    
Events Rain    
Averages and records for this station are not official NWS values.
T = Trace of Precipitation, MM = Missing Value Source: NWS Daily Summary

Daily Weather History Graph

Daily Weather History Graph

Search for Another Location

Airport or City:

Trip Planner

Search our weather history database for the weather conditions in past years. The results will help you decide how hot, cold, wet, or windy it might be!

Date:

Astronomy

May. 03, 2013 Rise Set
Actual Time 4:57 AM AKDT 9:01 PM AKDT
Civil Twilight 4:04 AM AKDT 9:54 PM AKDT
Nautical Twilight 2:43 AM AKDT 11:18 PM AKDT
Astronomical Twilight Sun does not set Sun does not set
Moon 2:56 AM AKDT (5/3) 1:40 PM AKDT (5/3)
Length of Visible Light 17h 50m
Length of Day
16h 04m
Waning Crescent, 35% of the Moon is Illuminated
May 3
Waning Crescent
May 9
New
May 17
First Quarter
May 24
Full
May 31
Last Quarter

Hourly Weather History & Observations

Time (AKDT) Temp. Windchill Dew Point Humidity Pressure Visibility Wind Dir Wind Speed Gust Speed Precip Events Conditions
12:21 AM 42.8 °F 35.4 °F 39.2 °F 87% 30.36 in 10.0 mi East 15.0 mph 21.9 mph N/A   Overcast
12:54 AM 43.0 °F 37.7 °F 39.9 °F 89% 30.38 in 10.0 mi East 9.2 mph 16.1 mph N/A   Overcast
1:10 AM 42.8 °F 37.0 °F 39.2 °F 87% 30.37 in 10.0 mi East 10.4 mph - N/A   Mostly Cloudy
1:22 AM 42.8 °F 36.6 °F 39.2 °F 87% 30.37 in 10.0 mi East 11.5 mph 19.6 mph N/A   Mostly Cloudy
1:41 AM 42.8 °F 36.2 °F 39.2 °F 87% 30.38 in 10.0 mi ESE 12.7 mph 23.0 mph N/A   Overcast
1:54 AM 43.0 °F 37.7 °F 39.9 °F 89% 30.40 in 10.0 mi East 9.2 mph 17.3 mph N/A   Overcast
2:54 AM 43.0 °F 38.2 °F 39.9 °F 89% 30.41 in 10.0 mi East 8.1 mph - N/A   Overcast
3:47 AM 44.6 °F 39.2 °F 39.2 °F 81% 30.40 in 10.0 mi East 10.4 mph 17.3 mph N/A   Overcast
3:54 AM 44.1 °F 38.6 °F 39.9 °F 85% 30.40 in 10.0 mi East 10.4 mph 18.4 mph N/A   Overcast
4:41 AM 44.6 °F 39.2 °F 39.2 °F 81% 30.40 in 10.0 mi East 10.4 mph 24.2 mph N/A   Overcast
4:54 AM 44.1 °F 37.4 °F 39.9 °F 85% 30.40 in 10.0 mi East 13.8 mph 23.0 mph N/A   Overcast
5:19 AM 44.6 °F 39.2 °F 41.0 °F 87% 30.38 in 10.0 mi ENE 10.4 mph 23.0 mph 0.00 in Rain Light Rain
5:54 AM 44.1 °F 37.7 °F 41.0 °F 89% 30.39 in 10.0 mi East 12.7 mph 20.7 mph 0.00 in Rain Light Rain
6:54 AM 44.1 °F 38.1 °F 41.0 °F 89% 30.40 in 10.0 mi ESE 11.5 mph 23.0 mph 0.01 in Rain Light Rain
7:02 AM 44.6 °F 37.8 °F 41.0 °F 87% 30.39 in 10.0 mi East 15.0 mph 27.6 mph 0.00 in Rain Light Rain
7:13 AM 44.6 °F 38.8 °F 41.0 °F 87% 30.39 in 10.0 mi East 11.5 mph 24.2 mph 0.01 in Rain Light Rain
7:54 AM 43.0 °F 36.4 °F 41.0 °F 93% 30.40 in 9.0 mi East 12.7 mph 25.3 mph 0.01 in Rain Light Rain
8:54 AM 44.1 °F 36.8 °F 41.0 °F 89% 30.39 in 10.0 mi East 16.1 mph 26.5 mph 0.01 in Rain Light Rain
9:54 AM 44.1 °F 37.7 °F 41.0 °F 89% 30.38 in 10.0 mi East 12.7 mph 27.6 mph 0.01 in Rain Light Rain
10:54 AM 45.0 °F 38.2 °F 41.0 °F 86% 30.38 in 10.0 mi East 15.0 mph 24.2 mph 0.00 in Rain Light Rain
11:25 AM 44.6 °F 38.1 °F 41.0 °F 87% 30.37 in 10.0 mi East 13.8 mph 26.5 mph 0.00 in Rain Light Rain
11:39 AM 44.6 °F 37.2 °F 41.0 °F 87% 30.37 in 10.0 mi East 17.3 mph 27.6 mph 0.00 in Rain Light Rain
11:54 AM 44.1 °F 37.1 °F 41.0 °F 89% 30.38 in 10.0 mi East 15.0 mph 24.2 mph 0.00 in Rain Light Rain
12:54 PM 44.1 °F 37.4 °F 41.0 °F 89% 30.38 in 8.0 mi ESE 13.8 mph 20.7 mph 0.01 in Rain Light Rain
1:37 PM 44.6 °F 38.4 °F 42.8 °F 93% 30.37 in 9.0 mi East 12.7 mph 23.0 mph 0.00 in Rain Light Rain
1:54 PM 44.1 °F 37.1 °F 42.1 °F 93% 30.38 in 10.0 mi East 15.0 mph 23.0 mph 0.00 in Rain Light Rain
2:17 PM 44.6 °F 38.1 °F 42.8 °F 93% 30.36 in 10.0 mi East 13.8 mph 25.3 mph 0.01 in Rain Light Rain
2:54 PM 45.0 °F 38.2 °F 42.1 °F 90% 30.36 in 10.0 mi East 15.0 mph 25.3 mph 0.01 in Rain Light Rain
2:58 PM 44.6 °F 38.8 °F 42.8 °F 93% 30.35 in 10.0 mi East 11.5 mph 25.3 mph 0.00 in Rain Light Rain
3:54 PM 45.0 °F 37.9 °F 42.1 °F 90% 30.35 in 10.0 mi East 16.1 mph 28.8 mph 0.00 in Rain Light Rain
4:36 PM 44.6 °F 37.4 °F 42.8 °F 93% 30.32 in 10.0 mi East 16.1 mph 28.8 mph 0.01 in Rain Light Rain
4:50 PM 44.6 °F 37.4 °F 42.8 °F 93% 30.31 in 10.0 mi East 16.1 mph 31.1 mph 0.01 in Rain Light Rain
4:54 PM 45.0 °F 37.9 °F 42.1 °F 90% 30.32 in 10.0 mi East 16.1 mph 31.1 mph 0.01 in Rain Light Rain
5:54 PM 45.0 °F 38.2 °F 42.1 °F 90% 30.30 in 10.0 mi East 15.0 mph 25.3 mph 0.00 in Rain Light Rain
6:54 PM 44.1 °F 36.8 °F 42.1 °F 93% 30.28 in 10.0 mi East 16.1 mph 25.3 mph 0.01 in Rain Light Rain
7:54 PM 45.0 °F 38.5 °F 42.1 °F 90% 30.25 in 10.0 mi East 13.8 mph 24.2 mph 0.00 in Rain Light Rain
8:25 PM 44.6 °F 37.4 °F 41.0 °F 87% 30.23 in 10.0 mi ENE 16.1 mph 28.8 mph 0.01 in Rain Light Rain
8:54 PM 45.0 °F 37.4 °F 39.9 °F 82% 30.23 in 10.0 mi ENE 18.4 mph 29.9 mph 0.01 in Rain Light Rain
9:54 PM 46.0 °F 39.3 °F 41.0 °F 83% 30.22 in 10.0 mi ENE 16.1 mph 25.3 mph 0.00 in Rain Light Rain
10:54 PM 46.0 °F 40.2 °F 42.1 °F 86% 30.22 in 10.0 mi East 12.7 mph 24.2 mph 0.01 in   Overcast
11:54 PM 46.0 °F 40.2 °F 42.1 °F 86% 30.21 in 10.0 mi East 12.7 mph 20.7 mph 0.00 in   Overcast